Time,TemperatureF,DewpointF,PressureIn,WindDirection,WindDirectionDegrees,WindSpeedMPH,WindSpeedGustMPH,Humidity,HourlyPrecipIn,Conditions,Clouds,dailyrainin,SoftwareType,DateUTC
2013-02-16 00:02:00,22.0,11.0,-100.00,NNW,330,6.0,11.0,61,-99.99,,,-99.99,,2013-02-16 06:02:00,
2013-02-16 00:11:00,22.0,11.0,-100.00,NW,325,9.0,18.0,62,-99.99,,,-99.99,,2013-02-16 06:11:00,
2013-02-16 00:21:00,21.0,10.0,-100.00,NW,325,8.0,17.0,61,-99.99,,,-99.99,,2013-02-16 06:21:00,
2013-02-16 00:32:00,21.0,10.0,-100.00,NW,325,8.0,17.0,61,-99.99,,,-99.99,,2013-02-16 06:32:00,
2013-02-16 00:42:00,21.0,10.0,-100.00,NW,325,9.0,14.0,61,-99.99,,,-99.99,,2013-02-16 06:42:00,
2013-02-16 00:52:00,21.0,10.0,-100.00,NW,320,10.0,18.0,62,-99.99,,,-99.99,,2013-02-16 06:52:00,
2013-02-16 01:02:00,21.0,10.0,-100.00,NW,320,10.0,18.0,62,-99.99,,,-99.99,,2013-02-16 07:02:00,
2013-02-16 01:11:00,20.0,9.0,-100.00,NNW,330,7.0,13.0,63,-99.99,,,-99.99,,2013-02-16 07:11:00,
2013-02-16 01:21:00,19.0,8.0,-100.00,NNW,340,2.0,21.0,62,-99.99,,,-99.99,,2013-02-16 07:21:00,
2013-02-16 01:31:00,19.0,8.0,-100.00,NNW,340,2.0,21.0,62,-99.99,,,-99.99,,2013-02-16 07:31:00,
2013-02-16 01:42:00,19.0,8.0,-100.00,NNW,340,2.0,16.0,62,-99.99,,,-99.99,,2013-02-16 07:42:00,
2013-02-16 01:53:00,19.0,8.0,-100.00,NNW,340,7.0,15.0,63,-99.99,,,-99.99,,2013-02-16 07:53:00,
2013-02-16 02:01:00,19.0,8.0,-100.00,NNW,340,7.0,15.0,63,-99.99,,,-99.99,,2013-02-16 08:01:00,
2013-02-16 02:11:00,18.0,8.0,-100.00,NW,325,8.0,19.0,63,-99.99,,,-99.99,,2013-02-16 08:11:00,
2013-02-16 02:21:00,18.0,8.0,-100.00,NNW,330,4.0,9.0,64,-99.99,,,-99.99,,2013-02-16 08:21:00,
2013-02-16 02:31:00,18.0,8.0,-100.00,NNW,330,4.0,9.0,64,-99.99,,,-99.99,,2013-02-16 08:31:00,
2013-02-16 02:42:00,17.0,8.0,-100.00,NNW,335,7.0,13.0,65,-99.99,,,-99.99,,2013-02-16 08:42:00,
2013-02-16 02:52:00,17.0,8.0,-100.00,NNW,330,8.0,15.0,66,-99.99,,,-99.99,,2013-02-16 08:52:00,
2013-02-16 03:01:00,17.0,8.0,-100.00,NNW,330,8.0,15.0,66,-99.99,,,-99.99,,2013-02-16 09:01:00,
2013-02-16 03:11:00,17.0,8.0,-100.00,NW,325,7.0,11.0,66,-99.99,,,-99.99,,2013-02-16 09:11:00,
2013-02-16 03:21:00,17.0,7.0,-100.00,NNW,345,9.0,14.0,66,-99.99,,,-99.99,,2013-02-16 09:21:00,
2013-02-16 03:32:00,17.0,7.0,-100.00,NNW,345,9.0,14.0,66,-99.99,,,-99.99,,2013-02-16 09:32:00,
2013-02-16 03:42:00,16.0,7.0,-100.00,NNW,330,7.0,16.0,66,-99.99,,,-99.99,,2013-02-16 09:42:00,
2013-02-16 03:52:00,16.0,7.0,-100.00,NNW,330,6.0,14.0,66,-99.99,,,-99.99,,2013-02-16 09:52:00,
2013-02-16 04:01:00,16.0,7.0,-100.00,NNW,330,6.0,14.0,66,-99.99,,,-99.99,,2013-02-16 10:01:00,
2013-02-16 04:11:00,16.0,7.0,-100.00,NW,325,4.0,13.0,66,-99.99,,,-99.99,,2013-02-16 10:11:00,
2013-02-16 04:21:00,16.0,6.0,-100.00,NW,315,4.0,11.0,66,-99.99,,,-99.99,,2013-02-16 10:21:00,
2013-02-16 04:31:00,16.0,6.0,-100.00,NW,315,4.0,11.0,66,-99.99,,,-99.99,,2013-02-16 10:31:00,
2013-02-16 04:42:00,15.0,6.0,-100.00,North,0,5.0,14.0,66,-99.99,,,-99.99,,2013-02-16 10:42:00,
2013-02-16 04:52:00,15.0,6.0,-100.00,NW,325,6.0,11.0,66,-99.99,,,-99.99,,2013-02-16 10:52:00,
2013-02-16 05:02:00,15.0,6.0,-100.00,NW,325,6.0,11.0,66,-99.99,,,-99.99,,2013-02-16 11:02:00,
2013-02-16 05:11:00,15.0,6.0,-100.00,NNW,335,4.0,11.0,66,-99.99,,,-99.99,,2013-02-16 11:11:00,
2013-02-16 05:22:00,15.0,6.0,-100.00,North,0,0.0,8.0,66,-99.99,,,-99.99,,2013-02-16 11:22:00,
2013-02-16 05:32:00,15.0,6.0,-100.00,North,0,0.0,8.0,66,-99.99,,,-99.99,,2013-02-16 11:32:00,
2013-02-16 05:42:00,15.0,6.0,-100.00,NNW,330,6.0,12.0,66,-99.99,,,-99.99,,2013-02-16 11:42:00,
2013-02-16 05:52:00,15.0,5.0,-100.00,NW,325,4.0,11.0,66,-99.99,,,-99.99,,2013-02-16 11:52:00,
2013-02-16 06:02:00,15.0,5.0,-100.00,NW,325,4.0,11.0,66,-99.99,,,-99.99,,2013-02-16 12:02:00,
2013-02-16 06:12:00,15.0,5.0,-100.00,NNW,335,3.0,10.0,66,-99.99,,,-99.99,,2013-02-16 12:12:00,
2013-02-16 06:22:00,15.0,6.0,-100.00,NNW,330,6.0,14.0,67,-99.99,,,-99.99,,2013-02-16 12:22:00,
2013-02-16 06:32:00,15.0,6.0,-100.00,NNW,330,6.0,14.0,67,-99.99,,,-99.99,,2013-02-16 12:32:00,
2013-02-16 06:42:00,15.0,6.0,-100.00,NW,320,5.0,11.0,67,-99.99,,,-99.99,,2013-02-16 12:42:00,
2013-02-16 06:52:00,15.0,6.0,-100.00,NNW,330,6.0,11.0,67,-99.99,,,-99.99,,2013-02-16 12:52:00,
2013-02-16 07:02:00,15.0,6.0,-100.00,NNW,330,6.0,11.0,67,-99.99,,,-99.99,,2013-02-16 13:02:00,
2013-02-16 07:12:00,14.0,5.0,-100.00,NNW,335,0.0,8.0,67,-99.99,,,-99.99,,2013-02-16 13:12:00,
2013-02-16 07:21:00,14.0,6.0,-100.00,WNW,295,4.0,7.0,68,-99.99,,,-99.99,,2013-02-16 13:21:00,
2013-02-16 07:32:00,14.0,6.0,-100.00,WNW,295,4.0,7.0,68,-99.99,,,-99.99,,2013-02-16 13:32:00,
2013-02-16 07:41:00,14.0,6.0,-100.00,WNW,295,4.0,7.0,68,-99.99,,,-99.99,,2013-02-16 13:41:00,
2013-02-16 08:11:00,16.0,7.0,-100.00,NW,315,6.0,11.0,69,-99.99,,,-99.99,,2013-02-16 14:11:00,
2013-02-16 08:21:00,17.0,9.0,-100.00,WNW,300,3.0,13.0,69,-99.99,,,-99.99,,2013-02-16 14:21:00,
2013-02-16 08:32:00,17.0,9.0,-100.00,WNW,300,3.0,13.0,69,-99.99,,,-99.99,,2013-02-16 14:32:00,
2013-02-16 08:41:00,18.0,9.0,-100.00,NW,325,6.0,11.0,68,-99.99,,,-99.99,,2013-02-16 14:41:00,
2013-02-16 08:52:00,18.0,9.0,-100.00,West,280,6.0,11.0,65,-99.99,,,-99.99,,2013-02-16 14:52:00,
2013-02-16 09:01:00,18.0,9.0,-100.00,West,280,6.0,11.0,65,-99.99,,,-99.99,,2013-02-16 15:01:00,
2013-02-16 09:11:00,20.0,9.0,-100.00,NW,305,4.0,11.0,62,-99.99,,,-99.99,,2013-02-16 15:11:00,
2013-02-16 09:21:00,20.0,9.0,-100.00,NNW,335,4.0,10.0,61,-99.99,,,-99.99,,2013-02-16 15:21:00,
2013-02-16 09:32:00,20.0,9.0,-100.00,NNW,335,4.0,10.0,61,-99.99,,,-99.99,,2013-02-16 15:32:00,
2013-02-16 09:42:00,21.0,9.0,-100.00,WNW,300,4.0,10.0,58,-99.99,,,-99.99,,2013-02-16 15:42:00,
2013-02-16 09:52:00,21.0,8.0,-100.00,WNW,290,6.0,12.0,56,-99.99,,,-99.99,,2013-02-16 15:52:00,
2013-02-16 10:01:00,21.0,8.0,-100.00,WNW,290,6.0,12.0,56,-99.99,,,-99.99,,2013-02-16 16:01:00,
2013-02-16 10:11:00,22.0,8.0,-100.00,NW,315,4.0,10.0,54,-99.99,,,-99.99,,2013-02-16 16:11:00,
2013-02-16 10:21:00,22.0,7.0,-100.00,NNW,330,6.0,15.0,53,-99.99,,,-99.99,,2013-02-16 16:21:00,
2013-02-16 10:32:00,22.0,7.0,-100.00,NNW,330,6.0,15.0,53,-99.99,,,-99.99,,2013-02-16 16:32:00,
2013-02-16 10:42:00,23.0,8.0,-100.00,NW,305,7.0,13.0,52,-99.99,,,-99.99,,2013-02-16 16:42:00,
2013-02-16 10:52:00,23.0,7.0,-100.00,NW,310,10.0,16.0,50,-99.99,,,-99.99,,2013-02-16 16:52:00,
2013-02-16 11:01:00,23.0,7.0,-100.00,NW,310,10.0,16.0,50,-99.99,,,-99.99,,2013-02-16 17:01:00,
2013-02-16 11:11:00,24.0,8.0,-100.00,WNW,290,4.0,18.0,49,-99.99,,,-99.99,,2013-02-16 17:11:00,
2013-02-16 11:22:00,23.0,6.0,-100.00,NW,325,6.0,19.0,48,-99.99,,,-99.99,,2013-02-16 17:22:00,
2013-02-16 11:32:00,23.0,6.0,-100.00,NW,325,6.0,19.0,48,-99.99,,,-99.99,,2013-02-16 17:32:00,
2013-02-16 11:42:00,25.0,8.0,-100.00,NW,315,10.0,17.0,48,-99.99,,,-99.99,,2013-02-16 17:42:00,
2013-02-16 11:52:00,25.0,8.0,-100.00,WNW,295,7.0,18.0,48,-99.99,,,-99.99,,2013-02-16 17:52:00,
2013-02-16 12:02:00,25.0,8.0,-100.00,WNW,295,7.0,18.0,48,-99.99,,,-99.99,,2013-02-16 18:02:00,
2013-02-16 12:11:00,25.0,8.0,-100.00,NW,325,10.0,19.0,47,-99.99,,,-99.99,,2013-02-16 18:11:00,
2013-02-16 12:21:00,25.0,8.0,-100.00,West,265,7.0,19.0,48,-99.99,,,-99.99,,2013-02-16 18:21:00,
2013-02-16 12:33:00,25.0,8.0,-100.00,West,265,7.0,19.0,48,-99.99,,,-99.99,,2013-02-16 18:33:00,
2013-02-16 12:42:00,25.0,8.0,-100.00,West,270,7.0,16.0,48,-99.99,,,-99.99,,2013-02-16 18:42:00,
2013-02-16 12:52:00,25.0,8.0,-100.00,WNW,295,9.0,17.0,48,-99.99,,,-99.99,,2013-02-16 18:52:00,
2013-02-16 13:02:00,25.0,8.0,-100.00,WNW,295,9.0,17.0,48,-99.99,,,-99.99,,2013-02-16 19:02:00,
2013-02-16 13:11:00,25.0,8.0,-100.00,NW,325,6.0,20.0,49,-99.99,,,-99.99,,2013-02-16 19:11:00,
2013-02-16 13:21:00,26.0,9.0,-100.00,WNW,300,9.0,20.0,49,-99.99,,,-99.99,,2013-02-16 19:21:00,
2013-02-16 13:31:00,26.0,9.0,-100.00,WNW,300,9.0,20.0,49,-99.99,,,-99.99,,2013-02-16 19:31:00,
2013-02-16 13:42:00,27.0,10.0,-100.00,WNW,300,4.0,19.0,49,-99.99,,,-99.99,,2013-02-16 19:42:00,
2013-02-16 13:52:00,25.0,9.0,-100.00,WNW,290,9.0,20.0,50,-99.99,,,-99.99,,2013-02-16 19:52:00,
2013-02-16 14:01:00,25.0,9.0,-100.00,WNW,290,9.0,20.0,50,-99.99,,,-99.99,,2013-02-16 20:01:00,
2013-02-16 14:11:00,25.0,9.0,-100.00,NNW,340,6.0,19.0,51,-99.99,,,-99.99,,2013-02-16 20:11:00,
2013-02-16 14:21:00,26.0,11.0,-100.00,NW,315,12.0,21.0,52,-99.99,,,-99.99,,2013-02-16 20:21:00,
2013-02-16 14:32:00,26.0,11.0,-100.00,NW,315,12.0,21.0,52,-99.99,,,-99.99,,2013-02-16 20:32:00,
2013-02-16 14:42:00,26.0,11.0,-100.00,WSW,255,10.0,23.0,51,-99.99,,,-99.99,,2013-02-16 20:42:00,
2013-02-16 14:52:00,25.0,10.0,-100.00,NW,310,9.0,19.0,51,-99.99,,,-99.99,,2013-02-16 20:52:00,
2013-02-16 15:02:00,25.0,10.0,-100.00,NW,310,9.0,19.0,51,-99.99,,,-99.99,,2013-02-16 21:02:00,
2013-02-16 15:11:00,26.0,11.0,-100.00,NNW,340,12.0,20.0,52,-99.99,,,-99.99,,2013-02-16 21:11:00,
2013-02-16 15:21:00,26.0,10.0,-100.00,NNW,330,14.0,20.0,51,-99.99,,,-99.99,,2013-02-16 21:21:00,
2013-02-16 15:32:00,26.0,10.0,-100.00,NNW,330,14.0,20.0,51,-99.99,,,-99.99,,2013-02-16 21:32:00,
2013-02-16 15:42:00,25.0,9.0,-100.00,WNW,300,8.0,20.0,51,-99.99,,,-99.99,,2013-02-16 21:42:00,
2013-02-16 15:52:00,25.0,10.0,-100.00,WNW,295,7.0,20.0,52,-99.99,,,-99.99,,2013-02-16 21:52:00,
2013-02-16 16:01:00,25.0,10.0,-100.00,WNW,295,7.0,20.0,52,-99.99,,,-99.99,,2013-02-16 22:01:00,
2013-02-16 16:11:00,25.0,9.0,-100.00,WNW,295,11.0,20.0,51,-99.99,,,-99.99,,2013-02-16 22:11:00,
2013-02-16 16:21:00,26.0,10.0,-100.00,NW,310,6.0,18.0,51,-99.99,,,-99.99,,2013-02-16 22:21:00,
2013-02-16 16:32:00,26.0,10.0,-100.00,NW,310,6.0,18.0,51,-99.99,,,-99.99,,2013-02-16 22:32:00,
2013-02-16 16:42:00,26.0,10.0,-100.00,NW,320,8.0,19.0,50,-99.99,,,-99.99,,2013-02-16 22:42:00,
2013-02-16 16:52:00,25.0,9.0,-100.00,NW,325,2.0,17.0,50,-99.99,,,-99.99,,2013-02-16 22:52:00,
2013-02-16 17:02:00,25.0,9.0,-100.00,NW,325,2.0,17.0,50,-99.99,,,-99.99,,2013-02-16 23:02:00,
2013-02-16 17:11:00,24.0,9.0,-100.00,NW,325,7.0,17.0,51,-99.99,,,-99.99,,2013-02-16 23:11:00,
2013-02-16 17:21:00,24.0,8.0,-100.00,NW,320,8.0,13.0,51,-99.99,,,-99.99,,2013-02-16 23:21:00,
2013-02-16 17:31:00,24.0,8.0,-100.00,NW,320,8.0,13.0,51,-99.99,,,-99.99,,2013-02-16 23:31:00,
2013-02-16 17:42:00,24.0,8.0,-100.00,North,0,9.0,17.0,51,-99.99,,,-99.99,,2013-02-16 23:42:00,
2013-02-16 17:52:00,24.0,9.0,-100.00,NNW,340,5.0,14.0,52,-99.99,,,-99.99,,2013-02-16 23:52:00,
2013-02-16 18:02:00,24.0,9.0,-100.00,NNW,340,5.0,14.0,52,-99.99,,,-99.99,,2013-02-17 00:02:00,
2013-02-16 18:12:00,23.0,8.0,-100.00,NNW,335,2.0,11.0,53,-99.99,,,-99.99,,2013-02-17 00:12:00,
2013-02-16 18:22:00,22.0,8.0,-100.00,North,0,4.0,8.0,54,-99.99,,,-99.99,,2013-02-17 00:22:00,
2013-02-16 18:32:00,22.0,8.0,-100.00,North,0,4.0,8.0,54,-99.99,,,-99.99,,2013-02-17 00:32:00,
2013-02-16 18:42:00,21.0,8.0,-100.00,North,10,7.0,11.0,56,-99.99,,,-99.99,,2013-02-17 00:42:00,
2013-02-16 18:52:00,20.0,8.0,-100.00,NNE,15,6.0,10.0,58,-99.99,,,-99.99,,2013-02-17 00:52:00,
2013-02-16 19:01:00,20.0,8.0,-100.00,NNE,15,6.0,10.0,58,-99.99,,,-99.99,,2013-02-17 01:01:00,
2013-02-16 19:11:00,20.0,8.0,-100.00,NNE,25,8.0,13.0,60,-99.99,,,-99.99,,2013-02-17 01:11:00,
2013-02-16 19:21:00,19.0,8.0,-100.00,NNE,20,11.0,15.0,61,-99.99,,,-99.99,,2013-02-17 01:21:00,
2013-02-16 19:31:00,19.0,8.0,-100.00,NNE,20,11.0,15.0,61,-99.99,,,-99.99,,2013-02-17 01:31:00,
2013-02-16 19:41:00,19.0,8.0,-100.00,NNE,20,11.0,15.0,61,-99.99,,,-99.99,,2013-02-17 01:41:00,
2013-02-16 19:52:00,18.0,8.0,-100.00,NNE,20,6.0,12.0,62,-99.99,,,-99.99,,2013-02-17 01:52:00,
2013-02-16 20:01:00,18.0,8.0,-100.00,NNE,20,6.0,12.0,62,-99.99,,,-99.99,,2013-02-17 02:01:00,
2013-02-16 20:11:00,18.0,7.0,-100.00,NE,35,6.0,9.0,63,-99.99,,,-99.99,,2013-02-17 02:11:00,
2013-02-16 20:21:00,17.0,7.0,-100.00,NNE,30,8.0,11.0,64,-99.99,,,-99.99,,2013-02-17 02:21:00,
2013-02-16 20:31:00,17.0,7.0,-100.00,NNE,30,8.0,11.0,64,-99.99,,,-99.99,,2013-02-17 02:31:00,
2013-02-16 20:41:00,18.0,8.0,-100.00,NNE,30,5.0,11.0,65,-99.99,,,-99.99,,2013-02-17 02:41:00,
2013-02-16 20:52:00,18.0,8.0,-100.00,NNE,25,7.0,11.0,65,-99.99,,,-99.99,,2013-02-17 02:52:00,
2013-02-16 21:02:00,18.0,8.0,-100.00,NNE,25,7.0,11.0,65,-99.99,,,-99.99,,2013-02-17 03:02:00,
2013-02-16 21:11:00,17.0,8.0,-100.00,NNE,25,6.0,11.0,65,-99.99,,,-99.99,,2013-02-17 03:11:00,
2013-02-16 21:21:00,17.0,7.0,-100.00,NE,35,4.0,9.0,65,-99.99,,,-99.99,,2013-02-17 03:21:00,
2013-02-16 21:31:00,17.0,7.0,-100.00,NE,35,4.0,9.0,65,-99.99,,,-99.99,,2013-02-17 03:31:00,
2013-02-16 21:42:00,17.0,7.0,-100.00,NE,40,4.0,9.0,65,-99.99,,,-99.99,,2013-02-17 03:42:00,
2013-02-16 21:52:00,17.0,7.0,-100.00,NE,45,4.0,4.0,65,-99.99,,,-99.99,,2013-02-17 03:52:00,
2013-02-16 22:01:00,17.0,7.0,-100.00,NE,45,4.0,4.0,65,-99.99,,,-99.99,,2013-02-17 04:01:00,
2013-02-16 22:11:00,17.0,7.0,-100.00,NE,50,2.0,4.0,65,-99.99,,,-99.99,,2013-02-17 04:11:00,
2013-02-16 22:21:00,16.0,7.0,-100.00,ENE,65,1.0,4.0,65,-99.99,,,-99.99,,2013-02-17 04:21:00,
2013-02-16 22:31:00,16.0,7.0,-100.00,ENE,65,1.0,4.0,65,-99.99,,,-99.99,,2013-02-17 04:31:00,
2013-02-16 22:41:00,16.0,7.0,-100.00,ENE,65,3.0,4.0,66,-99.99,,,-99.99,,2013-02-17 04:41:00,
2013-02-16 22:52:00,16.0,6.0,-100.00,ENE,75,2.0,4.0,66,-99.99,,,-99.99,,2013-02-17 04:52:00,
2013-02-16 23:02:00,16.0,6.0,-100.00,ENE,75,2.0,4.0,66,-99.99,,,-99.99,,2013-02-17 05:02:00,
2013-02-16 23:12:00,16.0,6.0,-100.00,East,90,2.0,4.0,66,-99.99,,,-99.99,,2013-02-17 05:12:00,
2013-02-16 23:22:00,16.0,7.0,-100.00,ENE,70,2.0,5.0,67,-99.99,,,-99.99,,2013-02-17 05:22:00,
2013-02-16 23:33:00,16.0,7.0,-100.00,ENE,70,2.0,5.0,67,-99.99,,,-99.99,,2013-02-17 05:33:00,
2013-02-16 23:42:00,16.0,7.0,-100.00,ESE,105,1.0,4.0,66,-99.99,,,-99.99,,2013-02-17 05:42:00,
2013-02-16 23:52:00,16.0,7.0,-100.00,East,80,4.0,6.0,66,-99.99,,,-99.99,,2013-02-17 05:52:00,